Time,TemperatureF,DewpointF,PressureIn,WindDirection,WindDirectionDegrees,WindSpeedMPH,WindSpeedGustMPH,Humidity,HourlyPrecipIn,Conditions,Clouds,dailyrainin,SoftwareType,DateUTC
2013-03-26 00:14:00,34.3,27.0,29.98,WNW,299,1.0,2.0,74,0.00,,,0.00,weatherlink.com 1.10,2013-03-26 04:14:00,
2013-03-26 00:29:00,34.1,27.0,29.98,WNW,283,0.0,1.0,75,0.00,,,0.00,weatherlink.com 1.10,2013-03-26 04:29:00,
2013-03-26 00:44:00,33.7,27.0,29.98,WNW,290,0.0,0.0,77,0.00,,,0.00,weatherlink.com 1.10,2013-03-26 04:44:00,
2013-03-26 00:59:00,33.7,27.0,29.98,NW,308,0.0,0.0,77,0.00,,,0.00,weatherlink.com 1.10,2013-03-26 04:59:00,
2013-03-26 01:14:00,33.6,27.0,29.99,NW,310,0.0,0.0,77,0.00,,,0.00,weatherlink.com 1.10,2013-03-26 05:14:00,
2013-03-26 01:29:00,33.5,27.0,29.99,WNW,293,0.0,0.0,77,0.00,,,0.00,weatherlink.com 1.10,2013-03-26 05:29:00,
2013-03-26 01:44:00,33.5,27.0,29.99,NW,315,0.0,0.0,77,0.00,,,0.00,weatherlink.com 1.10,2013-03-26 05:44:00,
2013-03-26 01:59:00,33.5,27.0,29.99,NW,307,0.0,0.0,78,0.00,,,0.00,weatherlink.com 1.10,2013-03-26 05:59:00,
2013-03-26 02:14:00,33.3,27.0,30.00,NW,307,0.0,0.0,78,0.00,,,0.00,weatherlink.com 1.10,2013-03-26 06:14:00,
2013-03-26 02:29:00,33.2,28.0,30.00,NW,306,0.0,0.0,80,0.00,,,0.00,weatherlink.com 1.10,2013-03-26 06:29:00,
2013-03-26 02:44:00,33.1,28.0,30.00,SW,226,0.0,0.0,80,0.00,,,0.00,weatherlink.com 1.10,2013-03-26 06:44:00,
2013-03-26 02:59:00,33.2,28.0,30.00,NW,316,0.0,0.0,80,0.00,,,0.00,weatherlink.com 1.10,2013-03-26 06:59:00,
2013-03-26 03:14:00,33.1,28.0,30.00,NW,316,0.0,0.0,80,0.00,,,0.00,weatherlink.com 1.10,2013-03-26 07:14:00,
2013-03-26 03:29:00,33.0,28.0,30.00,NW,325,0.0,1.0,81,0.00,,,0.00,weatherlink.com 1.10,2013-03-26 07:29:00,
2013-03-26 03:44:00,32.6,27.0,30.00,NE,36,0.0,0.0,81,0.00,,,0.00,weatherlink.com 1.10,2013-03-26 07:44:00,
2013-03-26 03:59:00,31.9,27.0,30.00,NE,37,0.0,0.0,82,0.00,,,0.00,weatherlink.com 1.10,2013-03-26 07:59:00,
2013-03-26 04:15:00,30.9,27.0,30.00,NE,36,0.0,0.0,84,0.00,,,0.00,weatherlink.com 1.10,2013-03-26 08:15:00,
2013-03-26 04:30:00,30.3,26.0,30.00,NE,36,0.0,0.0,85,0.00,,,0.00,weatherlink.com 1.10,2013-03-26 08:30:00,
2013-03-26 04:45:00,30.4,27.0,30.00,NNW,330,0.0,0.0,86,0.00,,,0.00,weatherlink.com 1.10,2013-03-26 08:45:00,
2013-03-26 05:00:00,29.8,26.0,30.00,NNW,330,0.0,0.0,87,0.00,,,0.00,weatherlink.com 1.10,2013-03-26 09:00:00,
2013-03-26 05:15:00,29.3,26.0,30.01,NNW,330,0.0,0.0,87,0.00,,,0.00,weatherlink.com 1.10,2013-03-26 09:15:00,
2013-03-26 05:30:00,29.3,27.0,30.01,NNW,330,0.0,0.0,89,0.00,,,0.00,weatherlink.com 1.10,2013-03-26 09:30:00,
2013-03-26 05:45:00,29.7,27.0,30.02,NNW,330,0.0,0.0,89,0.00,,,0.00,weatherlink.com 1.10,2013-03-26 09:45:00,
2013-03-26 06:00:00,30.0,27.0,30.02,NW,309,0.0,0.0,89,0.00,,,0.00,weatherlink.com 1.10,2013-03-26 10:00:00,
2013-03-26 06:15:00,30.5,27.0,30.02,WNW,300,0.0,0.0,88,0.00,,,0.00,weatherlink.com 1.10,2013-03-26 10:15:00,
2013-03-26 06:30:00,30.9,28.0,30.03,WNW,295,0.0,0.0,87,0.00,,,0.00,weatherlink.com 1.10,2013-03-26 10:30:00,
2013-03-26 06:45:00,31.1,27.0,30.03,NW,309,0.0,0.0,86,0.00,,,0.00,weatherlink.com 1.10,2013-03-26 10:45:00,
2013-03-26 07:00:00,31.3,28.0,30.04,NW,325,1.0,3.0,86,0.00,,,0.00,weatherlink.com 1.10,2013-03-26 11:00:00,
2013-03-26 07:15:00,31.3,28.0,30.04,WNW,303,2.0,3.0,86,0.00,,,0.00,weatherlink.com 1.10,2013-03-26 11:15:00,
2013-03-26 07:30:00,31.3,28.0,30.05,NW,314,2.0,3.0,86,0.00,,,0.00,weatherlink.com 1.10,2013-03-26 11:30:00,
2013-03-26 07:45:00,31.4,28.0,30.05,NW,321,1.0,3.0,86,0.00,,,0.00,weatherlink.com 1.10,2013-03-26 11:45:00,
2013-03-26 08:00:00,31.4,28.0,30.05,NW,308,1.0,2.0,87,0.00,,,0.00,weatherlink.com 1.10,2013-03-26 12:00:00,
2013-03-26 08:15:00,31.6,28.0,30.06,NW,311,0.0,2.0,87,0.00,,,0.00,weatherlink.com 1.10,2013-03-26 12:15:00,
2013-03-26 08:30:00,31.7,28.0,30.06,NW,305,0.0,0.0,87,0.00,,,0.00,weatherlink.com 1.10,2013-03-26 12:30:00,
2013-03-26 08:45:00,32.0,29.0,30.07,WNW,286,0.0,0.0,87,0.00,,,0.00,weatherlink.com 1.10,2013-03-26 12:45:00,
2013-03-26 09:00:00,32.3,29.0,30.07,WNW,301,0.0,0.0,87,0.00,,,0.00,weatherlink.com 1.10,2013-03-26 13:00:00,
2013-03-26 09:15:00,32.7,29.0,30.07,West,280,0.0,0.0,87,0.00,,,0.00,weatherlink.com 1.10,2013-03-26 13:15:00,
2013-03-26 09:30:00,33.0,29.0,30.08,NW,311,0.0,0.0,86,0.00,,,0.00,weatherlink.com 1.10,2013-03-26 13:30:00,
2013-03-26 09:45:00,33.5,30.0,30.08,NW,307,1.0,3.0,86,0.00,,,0.00,weatherlink.com 1.10,2013-03-26 13:45:00,
2013-03-26 10:00:00,33.9,30.0,30.08,WNW,297,1.0,4.0,85,0.00,,,0.00,weatherlink.com 1.10,2013-03-26 14:00:00,
2013-03-26 10:15:00,34.4,30.0,30.08,NW,304,2.0,3.0,85,0.00,,,0.00,weatherlink.com 1.10,2013-03-26 14:15:00,
2013-03-26 10:30:00,34.7,30.0,30.09,WNW,302,1.0,5.0,84,0.00,,,0.00,weatherlink.com 1.10,2013-03-26 14:30:00,
2013-03-26 10:45:00,34.8,30.0,30.09,West,278,2.0,5.0,84,0.00,,,0.00,weatherlink.com 1.10,2013-03-26 14:45:00,
2013-03-26 11:00:00,35.0,31.0,30.09,NW,307,2.0,5.0,84,0.00,,,0.00,weatherlink.com 1.10,2013-03-26 15:00:00,
2013-03-26 11:15:00,35.6,31.0,30.09,WNW,303,4.0,4.0,83,0.00,,,0.00,weatherlink.com 1.10,2013-03-26 15:15:00,
2013-03-26 11:30:00,36.1,31.0,30.09,WNW,293,0.0,4.0,82,0.00,,,0.00,weatherlink.com 1.10,2013-03-26 15:30:00,
2013-03-26 11:45:00,36.8,32.0,30.09,WNW,286,2.0,5.0,81,0.00,,,0.00,weatherlink.com 1.10,2013-03-26 15:45:00,
2013-03-26 12:00:00,37.3,31.0,30.09,WNW,291,1.0,5.0,79,0.00,,,0.00,weatherlink.com 1.10,2013-03-26 16:00:00,
2013-03-26 12:15:00,38.2,32.0,30.09,WNW,286,2.0,5.0,77,0.00,,,0.00,weatherlink.com 1.10,2013-03-26 16:15:00,
2013-03-26 12:30:00,38.5,32.0,30.09,WNW,284,2.0,5.0,76,0.00,,,0.00,weatherlink.com 1.10,2013-03-26 16:30:00,
2013-03-26 12:45:00,38.7,31.0,30.09,NW,314,2.0,6.0,74,0.00,,,0.00,weatherlink.com 1.10,2013-03-26 16:45:00,
2013-03-26 13:01:00,39.2,32.0,30.09,NW,311,4.0,5.0,74,0.00,,,0.00,weatherlink.com 1.10,2013-03-26 17:01:00,
2013-03-26 13:16:00,39.6,31.0,30.09,NW,314,1.0,6.0,71,0.00,,,0.00,weatherlink.com 1.10,2013-03-26 17:16:00,
2013-03-26 13:31:00,39.6,31.0,30.09,NW,316,4.0,7.0,70,0.00,,,0.00,weatherlink.com 1.10,2013-03-26 17:31:00,
2013-03-26 13:46:00,39.9,31.0,30.08,NW,315,1.0,4.0,70,0.00,,,0.00,weatherlink.com 1.10,2013-03-26 17:46:00,
2013-03-26 14:01:00,40.1,30.0,30.08,NW,308,2.0,6.0,68,0.00,,,0.00,weatherlink.com 1.10,2013-03-26 18:01:00,
2013-03-26 15:01:00,39.6,29.0,30.08,WNW,292,2.0,5.0,66,0.00,,,0.00,weatherlink.com 1.10,2013-03-26 19:01:00,
2013-03-26 15:16:00,40.0,29.0,30.07,NW,311,4.0,5.0,65,0.00,,,0.00,weatherlink.com 1.10,2013-03-26 19:16:00,
2013-03-26 16:01:00,40.3,32.0,30.07,NW,304,1.0,8.0,72,0.00,,,0.00,weatherlink.com 1.10,2013-03-26 20:01:00,
2013-03-26 16:16:00,39.3,31.0,30.08,NW,308,3.0,7.0,71,0.00,,,0.00,weatherlink.com 1.10,2013-03-26 20:16:00,
2013-03-26 16:46:00,34.8,33.0,30.08,West,262,0.0,0.0,91,0.00,,,0.00,weatherlink.com 1.10,2013-03-26 20:46:00,
2013-03-26 17:01:00,36.9,33.0,30.08,NW,304,2.0,3.0,84,0.00,,,0.00,weatherlink.com 1.10,2013-03-26 21:01:00,
2013-03-26 17:16:00,37.9,32.0,30.08,NW,306,3.0,4.0,80,0.00,,,0.00,weatherlink.com 1.10,2013-03-26 21:16:00,
2013-03-26 17:31:00,36.8,32.0,30.09,WNW,299,4.0,5.0,84,0.00,,,0.00,weatherlink.com 1.10,2013-03-26 21:31:00,
2013-03-26 17:46:00,35.5,33.0,30.09,WNW,300,1.0,4.0,89,0.00,,,0.00,weatherlink.com 1.10,2013-03-26 21:46:00,
2013-03-26 18:01:00,36.2,33.0,30.09,WNW,300,2.0,4.0,88,0.00,,,0.00,weatherlink.com 1.10,2013-03-26 22:01:00,
2013-03-26 18:16:00,36.3,33.0,30.09,WNW,298,2.0,3.0,87,0.00,,,0.00,weatherlink.com 1.10,2013-03-26 22:16:00,
2013-03-26 18:31:00,36.2,33.0,30.10,WNW,301,0.0,3.0,88,0.00,,,0.00,weatherlink.com 1.10,2013-03-26 22:31:00,
2013-03-26 18:46:00,36.4,33.0,30.10,WNW,284,0.0,4.0,88,0.00,,,0.00,weatherlink.com 1.10,2013-03-26 22:46:00,
2013-03-26 19:01:00,35.3,32.0,30.11,WNW,295,0.0,3.0,89,0.00,,,0.00,weatherlink.com 1.10,2013-03-26 23:01:00,
2013-03-26 19:16:00,34.8,33.0,30.11,NW,308,0.0,2.0,91,0.00,,,0.00,weatherlink.com 1.10,2013-03-26 23:16:00,
2013-03-26 19:31:00,34.7,33.0,30.11,WNW,288,0.0,0.0,92,0.00,,,0.00,weatherlink.com 1.10,2013-03-26 23:31:00,
2013-03-26 19:46:00,34.9,33.0,30.12,NW,308,3.0,3.0,92,0.00,,,0.00,weatherlink.com 1.10,2013-03-26 23:46:00,
2013-03-26 20:01:00,34.9,33.0,30.12,WNW,301,0.0,2.0,91,0.00,,,0.00,weatherlink.com 1.10,2013-03-27 00:01:00,
2013-03-26 20:31:00,34.5,33.0,30.13,WNW,301,0.0,0.0,92,0.00,,,0.00,weatherlink.com 1.10,2013-03-27 00:31:00,
2013-03-26 20:46:00,34.4,32.0,30.13,WNW,301,0.0,0.0,92,0.00,,,0.00,weatherlink.com 1.10,2013-03-27 00:46:00,
2013-03-26 21:01:00,34.1,32.0,30.13,WNW,300,0.0,0.0,92,0.00,,,0.00,weatherlink.com 1.10,2013-03-27 01:01:00,
2013-03-26 21:16:00,33.9,32.0,30.14,WNW,301,0.0,0.0,92,0.00,,,0.00,weatherlink.com 1.10,2013-03-27 01:16:00,
2013-03-26 21:46:00,34.4,32.0,30.15,NW,307,2.0,2.0,91,0.00,,,0.00,weatherlink.com 1.10,2013-03-27 01:46:00,
2013-03-26 22:01:00,34.9,32.0,30.15,NW,312,2.0,3.0,88,0.00,,,0.00,weatherlink.com 1.10,2013-03-27 02:01:00,
2013-03-26 22:16:00,35.2,31.0,30.16,NW,307,2.0,4.0,85,0.00,,,0.00,weatherlink.com 1.10,2013-03-27 02:16:00,
2013-03-26 22:32:00,35.1,31.0,30.16,NW,316,3.0,4.0,85,0.00,,,0.00,weatherlink.com 1.10,2013-03-27 02:32:00,
2013-03-26 22:46:00,35.1,30.0,30.16,NW,307,2.0,4.0,83,0.00,,,0.00,weatherlink.com 1.10,2013-03-27 02:46:00,
2013-03-26 23:01:00,35.1,30.0,30.16,NW,323,2.0,4.0,83,0.00,,,0.00,weatherlink.com 1.10,2013-03-27 03:01:00,
2013-03-26 23:16:00,35.2,30.0,30.16,WNW,285,2.0,4.0,81,0.00,,,0.00,weatherlink.com 1.10,2013-03-27 03:16:00,
2013-03-26 23:31:00,35.1,30.0,30.16,NW,312,2.0,4.0,81,0.00,,,0.00,weatherlink.com 1.10,2013-03-27 03:31:00,
2013-03-26 23:47:00,35.0,30.0,30.16,NW,307,2.0,4.0,81,0.00,,,0.00,weatherlink.com 1.10,2013-03-27 03:47:00,